METEOR 2-7 DEB

Satellite information

Favourite Embed

Satellite Type and Status

DEBRISIN ORBIT

Key statistics

Satellite METEOR 2-7 DEB at a glance.

Uptime

16125

Days in orbit

Revolutions

≈ 14.3

Per day

Orbit

LEO

Low Earth Orbit

Inclination

81.3

Latest

Satellite identification and parameters

Extended collection of information and parameters for METEOR 2-7 DEB.

Object identification

Identified? True

Debris? True

Object name: METEOR 2-7 DEB

International designator: 1981-043X

Object number (NORAD): 43300

Object ID (CCSDS): 43300

Country: COMMONWEALTH OF INDEPENDENT STATES (CIS)

Current information (Y/N): Y

RCS size: SMALL

Orbital parameters

Period: 100.721 minutes

Inclination: 81.2545 deg

SMA: 7170.905 km

Apoapsis: 817.702 km

Periapsis: 767.838 km

RAAN: 44.3653 deg

Eccentricy: 0.0034768

Argument of periapsis: 308.5053 deg

Mean anomaly: 51.3012 deg

Mean motion: 14.2968971 rev/day

Mean motion (dot): 0.00003702 rev/day2

B* drag term: 0.00143 1/REarth

Two-line elements (TLE)

Creation date: July 6, 2025, 10:56 p.m.

Reference frame: TEME

Reference center: EARTH

Epoch: July 6, 2025, 9:44 p.m. UTC

TLE line 0: 0 METEOR 2-7 DEB

TLE line 1: 1 43300U 81043X 25187.90559412 .00003702 00000-0 14300-2 0 9996

TLE line 2: 2 43300 81.2545 44.3653 0034768 308.5053 51.3012 14.29689710505878

Live tracking on map

Real-time ground track for satellite METEOR 2-7 DEB.

In-orbit conjunctions

A list of the most updated potential collisions computed for object METEOR 2-7 DEB.

Target Orbit TCA Probability of collision Miss distance Type
COSMOS 1275 DEB LEO 2025-04-01 15:23:12 0.0001168235 81.0 (m) DEBRIS
FENGYUN 1C DEB SSO 2024-12-27 21:35:10 0.0002082514 60.0 (m) DEBRIS

Associated space launch

Second generation soviet meteorological satellite

METEOR 2-7 DEB was lifted into orbit during the mission ‘Vostok 8A92M | Meteor-2 7’, on board a Vostok 8A92M space rocket.

The launch took place on May 14, 1981, 9:45 p.m. from 43/3 (43L).

For more information about the launch, click the button.

Launch to space Vostok 8A92M | Meteor-2 7
Vostok 8A92M | Meteor-2 7

Agency: N/A

Status: Launch Successful

Launch date: May 14, 1981, 9:45 p.m. UTC

Rocket: Vostok 8A92M

Launch pad: 43/3 (43L)

Location: Plesetsk Cosmodrome, Russian Federation

...

Latest news about this satellite

There are no fresh news available about this satellite. Check back as we update our databases every day.


Newsletter sign-up

Weekly statistics, charts and insights to help you stay on top of the space industry.